TimeCDT,TemperatureF,Dew PointF,Humidity,Sea Level PressureIn,VisibilityMPH,Wind Direction,Wind SpeedMPH,Gust SpeedMPH,PrecipitationIn,Events,Conditions,WindDirDegrees,DateUTC
12:15 AM,73.4,64.4,73,30.08,10.0,Calm,Calm,-,N/A,,Clear,0,2013-08-24 05:15:00
12:35 AM,73.4,64.4,73,30.08,10.0,Calm,Calm,-,N/A,,Clear,0,2013-08-24 05:35:00
12:56 AM,71.6,62.6,73,30.08,6.0,ENE,4.6,-,N/A,,Clear,70,2013-08-24 05:56:00
1:15 AM,71.6,64.4,78,30.09,2.5,Calm,Calm,-,N/A,,Clear,0,2013-08-24 06:15:00
1:35 AM,71.6,62.6,73,30.09,9.0,Calm,Calm,-,N/A,,Clear,0,2013-08-24 06:35:00
1:55 AM,71.6,62.6,73,30.09,9.0,Calm,Calm,-,N/A,,Clear,0,2013-08-24 06:55:00
2:15 AM,71.6,62.6,73,30.09,7.0,Calm,Calm,-,N/A,,Clear,0,2013-08-24 07:15:00
2:35 AM,71.6,62.6,73,30.09,8.0,NNE,3.5,-,N/A,,Clear,20,2013-08-24 07:35:00
3:55 AM,71.6,62.6,73,30.11,5.0,Calm,Calm,-,N/A,,Clear,0,2013-08-24 08:55:00
4:15 AM,71.6,62.6,73,30.11,5.0,Calm,Calm,-,N/A,,Clear,0,2013-08-24 09:15:00
4:35 AM,69.8,62.6,78,30.11,5.0,Calm,Calm,-,N/A,,Partly Cloudy,0,2013-08-24 09:35:00
5:15 AM,69.8,62.6,78,30.11,5.0,Calm,Calm,-,N/A,,Clear,0,2013-08-24 10:15:00
5:35 AM,71.6,62.6,73,30.12,5.0,Calm,Calm,-,N/A,,Clear,0,2013-08-24 10:35:00
5:55 AM,71.6,62.6,73,30.12,5.0,Calm,Calm,-,N/A,,Clear,0,2013-08-24 10:55:00
6:15 AM,69.8,62.6,78,30.13,4.0,Calm,Calm,-,N/A,,Clear,0,2013-08-24 11:15:00
6:36 AM,69.8,62.6,78,30.13,3.0,Calm,Calm,-,N/A,,Clear,0,2013-08-24 11:36:00
6:55 AM,69.8,62.6,78,30.14,2.0,NNE,3.5,-,N/A,,Clear,30,2013-08-24 11:55:00
7:15 AM,69.8,62.6,78,30.15,3.0,Calm,Calm,-,N/A,,Clear,0,2013-08-24 12:15:00
7:35 AM,71.6,62.6,73,30.15,7.0,Calm,Calm,-,N/A,,Clear,0,2013-08-24 12:35:00
7:55 AM,71.6,62.6,73,30.16,5.0,Calm,Calm,-,N/A,,Clear,0,2013-08-24 12:55:00
8:15 AM,73.4,64.4,73,30.17,5.0,Calm,Calm,-,N/A,,Clear,0,2013-08-24 13:15:00
8:56 AM,75.2,64.4,69,30.18,7.0,East,3.5,-,N/A,,Clear,90,2013-08-24 13:56:00
9:15 AM,77.0,64.4,65,30.18,8.0,East,4.6,-,N/A,,Clear,90,2013-08-24 14:15:00
9:35 AM,78.8,64.4,61,30.18,10.0,ESE,3.5,-,N/A,,Clear,110,2013-08-24 14:35:00
9:55 AM,78.8,64.4,61,30.18,10.0,East,4.6,-,N/A,,Clear,100,2013-08-24 14:55:00
10:15 AM,80.6,64.4,58,30.18,10.0,East,4.6,-,N/A,,Clear,80,2013-08-24 15:15:00
10:35 AM,82.4,66.2,58,30.19,10.0,East,4.6,-,N/A,,Clear,100,2013-08-24 15:35:00
10:55 AM,82.4,66.2,58,30.18,10.0,East,5.8,-,N/A,,Clear,90,2013-08-24 15:55:00
11:15 AM,82.4,66.2,58,30.18,10.0,East,3.5,-,N/A,,Clear,90,2013-08-24 16:15:00
11:35 AM,84.2,66.2,55,30.18,10.0,East,5.8,-,N/A,,Clear,100,2013-08-24 16:35:00
12:16 PM,87.8,64.4,46,30.17,10.0,East,5.8,-,N/A,,Clear,90,2013-08-24 17:16:00
12:35 PM,87.8,64.4,46,30.16,10.0,ENE,4.6,-,N/A,,Clear,70,2013-08-24 17:35:00
12:55 PM,87.8,64.4,46,30.16,10.0,East,5.8,-,N/A,,Clear,90,2013-08-24 17:55:00
1:35 PM,89.6,64.4,43,30.15,10.0,ENE,6.9,-,N/A,,Partly Cloudy,70,2013-08-24 18:35:00
1:55 PM,89.6,62.6,40,30.14,10.0,ENE,9.2,-,N/A,,Clear,70,2013-08-24 18:55:00
2:15 PM,89.6,64.4,43,30.14,10.0,East,8.1,-,N/A,,Clear,90,2013-08-24 19:15:00
4:56 PM,89.6,62.6,40,30.13,10.0,East,4.6,-,N/A,,Partly Cloudy,90,2013-08-24 21:56:00
5:15 PM,89.6,64.4,43,30.12,10.0,East,5.8,-,N/A,,Clear,90,2013-08-24 22:15:00
5:55 PM,87.8,62.6,43,30.12,10.0,East,5.8,-,N/A,,Clear,80,2013-08-24 22:55:00
6:15 PM,87.8,62.6,43,30.12,10.0,East,4.6,-,N/A,,Clear,80,2013-08-24 23:15:00
6:35 PM,87.8,62.6,43,30.12,10.0,ENE,4.6,-,N/A,,Clear,70,2013-08-24 23:35:00
7:15 PM,84.2,62.6,48,30.12,10.0,East,4.6,-,N/A,,Clear,90,2013-08-25 00:15:00
7:55 PM,80.6,62.6,54,30.13,10.0,East,3.5,-,N/A,,Clear,90,2013-08-25 00:55:00
8:15 PM,80.6,62.6,54,30.13,10.0,East,3.5,-,N/A,,Clear,80,2013-08-25 01:15:00
8:35 PM,78.8,62.6,57,30.13,10.0,Calm,Calm,-,N/A,,Clear,0,2013-08-25 01:35:00
8:55 PM,78.8,62.6,57,30.14,10.0,Calm,Calm,-,N/A,,Clear,0,2013-08-25 01:55:00
9:35 PM,75.2,62.6,65,30.16,10.0,Calm,Calm,-,N/A,,Clear,0,2013-08-25 02:35:00
9:55 PM,77.0,62.6,61,30.17,10.0,Calm,Calm,-,N/A,,Clear,0,2013-08-25 02:55:00
10:15 PM,75.2,62.6,65,30.17,10.0,Calm,Calm,-,N/A,,Clear,0,2013-08-25 03:15:00
10:35 PM,75.2,62.6,65,30.18,10.0,Calm,Calm,-,N/A,,Clear,0,2013-08-25 03:35:00
10:55 PM,73.4,62.6,69,30.18,10.0,Calm,Calm,-,N/A,,Clear,0,2013-08-25 03:55:00
11:15 PM,75.2,62.6,65,30.18,10.0,Calm,Calm,-,N/A,,Clear,0,2013-08-25 04:15:00
11:35 PM,73.4,62.6,69,30.18,10.0,Calm,Calm,-,N/A,,Clear,0,2013-08-25 04:35:00
11:55 PM,71.6,62.6,73,30.18,10.0,Calm,Calm,-,N/A,,Clear,0,2013-08-25 04:55:00